Regional Weather Roundup
Issued by NWS Green Bay, WI

Home | Current Version | Previous Version | Graphics & Text | Print | Product List | Glossary Off
Versions: 1 2 3 4 5 6 7 8 9 10 11 12 13 14 15 16 17 18 19 20 21 22 23 24 25 26 27 28 29 30 31 32 33 34 35 36 37 38 39 40 41 42 43 44 45 46 47 48 49 50

000
ASUS43 KGRB 011811
RWRGRB

NORTH-CENTRAL AND NORTHEAST WISCONSIN REGIONAL WEATHER ROUNDUP
NATIONAL WEATHER SERVICE GREEN BAY WI
100 PM CDT SAT AUG 01 2015

WIZ005-009-010>012-018-019-011900-
NORTH CENTRAL WISCONSIN

CITY           SKY/WX    TMP DP  RH WIND       PRES   REMARKS
IRONWOOD       SUNNY     73  54  49 NW12G20     N/A
MANITOWISH WTR PTSUNNY   74  51  43 NW9G17    29.92F
ARBOR VITAE    MOSUNNY   75  52  44 NW8       29.93S
EAGLE RIVER    MOSUNNY   74  47  38 W13G20    29.92F
LAND O LAKES   MOSUNNY   74  47  37 NW12G17   29.92F
RHINELANDER    SUNNY     76  49  38 NW12G18   29.94F
PHILLIPS       PTSUNNY   76  52  43 NW9G18    29.93F
ANTIGO         MOSUNNY   76  51  40 W16       29.95S
TOMAHAWK       MOSUNNY   75  52  43 W9        29.95F
MERRILL        NOT AVBL
$$

WIZ013-073-011900-
NORTHEAST WISCONSIN

CITY           SKY/WX    TMP DP  RH WIND       PRES   REMARKS
IRON MOUNTAIN  PTSUNNY   77  51  40 NW15      29.88F
MARINETTE      MOSUNNY   77  52  41 W6G17     29.87F
OCONTO         MOSUNNY   81  52  37 W9G17     29.89S
$$

WIZ017-030-035>037-045-011900-
CENTRAL WISCONSIN

CITY           SKY/WX    TMP DP  RH WIND       PRES   REMARKS
MEDFORD        MOSUNNY   75  52  43 W9G20     29.95F
WAUSAU         MOSUNNY   80  46  30 NW13G21   29.93F
MOSINEE        MOSUNNY   77  48  36 NW12G17   29.96F
MARSHFIELD     SUNNY     79  50  36 W12G23    29.96F
WISC RAPIDS    SUNNY     80  49  33 NW8G18    29.96F
STEVENS POINT  SUNNY     78  50  36 N9        29.95F
WAUPACA        SUNNY     83  46  26 W10G17    29.93F
SHAWANO        PTSUNNY   80  51  36 W10G17    29.92S
CLINTONVILLE   SUNNY     81  43  26 W17       29.92F
$$

WIZ038-039-048-051-011900-
FOX VALLEY

CITY           SKY/WX    TMP DP  RH WIND       PRES   REMARKS
NWS GREEN BAY  SUNNY     80  54  40 W13       29.91F
APPLETON       MOSUNNY   79  43  27 NW15G21   29.93F
OSHKOSH        MOSUNNY   81  52  36 W12G22    29.92F
FOND DU LAC    SUNNY     82  53  36 NW10      29.94F
$$

WIZ022-050-052-011900-
EAST CENTRAL WISCONSIN

CITY           SKY/WX    TMP DP  RH WIND       PRES   REMARKS
STURGEON BAY   SUNNY     77  54  44 W12       29.92S
MANITOWOC      SUNNY     80  49  33 MISG      29.91F
SHEBOYGAN      SUNNY     81  52  36 W9G20     29.92F
$$

LMZ563-521-522-541>543-011900-
LAKESHORE

STATION/POSITION TIME  TEMP    WIND        PRES    VSBY  WAVE
                       AIR SEA DIR/SP/G                  HT/PER
                 (UTC) (F)     (DEG/KT/KT) (MB)    (MI)  (FT/S)
SHEBOYGAN LKSHOR 1800   78     290/ 15/ 19 1012.9F
KEWAUNEE LKSHORE 1700   76     290/  6/ 13 1012.2F
ALGOMA MARINA    1742          290/  7/ 12   N/A
TWO RIVERS CG    1755   82                 1013.1      6   1
NORTHPORT PIER   1700   74     250/  6/ 13 1011.9S
N MID LAKE BUOY  1750   68 68  240/ 12/ 14 1011.2F         1/ 3
S GREEN BAY BUOY 1800   71 70  250/  6/  8 1013.7F
SISTER BAY LKSHO 1729   80     270/  7/  8   N/A
CHAMBERS ISLAND  1700   76     280/  3/  9 1011.9S
MENOMINEE LKSHOR 1700   73     300/  9/ 13 1012.8S
$$


USA.gov is the U.S. government's official web portal to all federal, state and local government web resources and services.